sat.trackr.live / text

‹ back to catalog

STARLINK-2231

NORAD 48577 · 2021-041AA

PAYLOAD ACTIVE UNKNOWN

§ Identity

Operator
Country
US
Launch date
2021-05-15
Launch site
AFETR
Launch vehicle
Mass (kg)
RCS (m²)

Purposes: comms

External: N2YO · Heavens-Above · Gunter

§ Orbital elements

Epoch: 2026-09-12T13:19:12.530496Z

Period
94.01 min
Inclination
53.1606°
Eccentricity
0.0001214
Mean motion
15.31693648 rev/d
Perigee alt
469.9 km
Apogee alt
471.6 km
Semi-major
6,848.9 km
B*
3.2364e-5
RAAN
337.2874°
Arg perigee
79.6944°
Mean anomaly
280.4194°
Rev number
29,390

§ Raw data

STARLINK-22311 48577U 21041AA  26255.55500614  .00000639  00000+0  32364-4 0  99942 48577  53.1606 337.2874 0001214  79.6944 280.4194 15.31693648293902

JSON: /api/v1/satellites/48577 · /tle

For live sub-satellite position, see the globe view (requires WebGL).

§ Visibility from observer

Set your observer location to see the next 7 days of passes ≥ 10°. The values pass through the URL so the page stays shareable.

No JS? Fill the form by hand. The geolocation button needs JavaScript.